Fort Campbell, KY

10:36 AM CDT on July 28, 2017 (GMT -0500)
Campbell Army Air Field

Weather History for KHOP - March, 2014

Change the Weather History Date:

Saturday, March 15, 2014

  Actual Average Record
Temperature  
Mean Temperature 53 °F -  
Max Temperature 69 °F 56 °F 86 °F (2016)
Min Temperature 38 °F 36 °F 21 °F (2017)
Degree Days  
Heating Degree Days 12    
Growing Degree Days 3 (Base 50)    
Moisture  
Dew Point 35 °F    
Average Humidity 52    
Maximum Humidity 95    
Minimum Humidity 21    
Precipitation  
Precipitation 0.00 in - - ()
Sea Level Pressure  
Sea Level Pressure 30.03 in    
Wind  
Wind Speed 7 mph (SSE)    
Max Wind Speed 12 mph    
Max Gust Speed 18 mph    
Visibility 10 miles    
Events      
Averages and records for this station are not official NWS values.
T = Trace of Precipitation, MM = Missing Value Source: NWS Daily Summary

Daily Weather History Graph

Daily Weather History Graph

Search for Another Location

Airport or City:

Trip Planner

Search our weather history database for the weather conditions in past years. The results will help you decide how hot, cold, wet, or windy it might be!

Date:

Astronomy

Mar. 15, 2014 Rise Set
Actual Time 7:00 AM CDT 6:57 PM CDT
Civil Twilight 6:35 AM CDT 7:23 PM CDT
Nautical Twilight 6:05 AM CDT 7:53 PM CDT
Astronomical Twilight 5:34 AM CDT 8:23 PM CDT
Moon 6:16 PM CDT (3/15) 6:11 AM CDT (3/15)
Length of Visible Light 12h 48m
Length of Day
11h 56m
Waxing Gibbous, 99% of the Moon is Illuminated
Mar 15
Waxing Gibbous
Mar 16
Full
Mar 23
Last Quarter
Mar 30
New
Apr 7
First Quarter

Hourly Weather History & Observations

Time (CDT) Temp. Windchill Dew Point Humidity Pressure Visibility Wind Dir Wind Speed Gust Speed Precip Events Conditions
12:58 AM 48.9 °F - 35.4 °F 60% 30.04 in 10.0 mi WSW 10.4 mph - N/A   Clear
1:58 AM 46.6 °F - 36.1 °F 67% 30.04 in 10.0 mi SW 10.4 mph - N/A   Clear
2:58 AM 44.2 °F 39.7 °F 36.1 °F 73% 30.05 in 10.0 mi WSW 8.1 mph - N/A   Clear
3:58 AM 45.5 °F 43.2 °F 36.9 °F 72% 30.04 in 10.0 mi West 4.6 mph - N/A   Clear
4:58 AM 45.7 °F - 37.8 °F 74% 30.05 in 10.0 mi WNW 2.3 mph - N/A   Clear
5:58 AM 41.5 °F - 37.6 °F 86% 30.07 in 10.0 mi Calm Calm - N/A   Clear
6:58 AM 38.3 °F - 37.0 °F 95% 30.08 in 10.0 mi SSE 2.3 mph - N/A   Clear
7:58 AM 40.3 °F - 38.3 °F 93% 30.10 in 10.0 mi Calm Calm - N/A   Clear
8:58 AM 50.2 °F - 41.4 °F 72% 30.12 in 10.0 mi SE 1.2 mph - N/A   Clear
9:58 AM 52.5 °F - 41.9 °F 67% 30.12 in 10.0 mi ESE 4.6 mph - N/A   Clear
10:58 AM 57.4 °F - 41.5 °F 56% 30.12 in 10.0 mi ESE 8.1 mph - N/A   Clear
11:58 AM 61.9 °F - 31.5 °F 32% 30.11 in 10.0 mi East 6.9 mph - N/A   Clear
12:58 PM 63.3 °F - 29.7 °F 28% 30.08 in 10.0 mi SE 9.2 mph - N/A   Partly Cloudy
1:58 PM 65.3 °F - 28.4 °F 25% 30.06 in 10.0 mi Variable 5.8 mph - N/A   Clear
2:58 PM 67.1 °F - 28.8 °F 24% 30.02 in 10.0 mi Variable 4.6 mph - N/A   Clear
3:58 PM 68.9 °F - 26.8 °F 21% 29.99 in 10.0 mi South 8.1 mph - N/A   Clear
4:24 PM 68.0 °F - 28.4 °F 23% 29.98 in 10.0 mi South 11.5 mph - N/A   Clear
4:58 PM 68.4 °F - 27.3 °F 22% 29.97 in 10.0 mi SSE 10.4 mph 18.4 mph N/A   Clear
5:58 PM 67.1 °F - 32.5 °F 28% 29.98 in 10.0 mi SSE 9.2 mph - N/A   Partly Cloudy
6:58 PM 64.2 °F - 32.5 °F 31% 29.97 in 10.0 mi SSE 4.6 mph - N/A   Partly Cloudy
7:58 PM 59.4 °F - 35.2 °F 40% 29.97 in 10.0 mi ESE 4.6 mph - N/A   Clear
8:58 PM 56.8 °F - 37.0 °F 48% 29.97 in 10.0 mi East 4.6 mph - N/A   Mostly Cloudy
9:58 PM 56.7 °F - 37.9 °F 50% 29.96 in 10.0 mi SE 4.6 mph - N/A   Scattered Clouds
10:58 PM 55.9 °F - 37.8 °F 51% 29.96 in 10.0 mi ESE 4.6 mph - N/A   Mostly Cloudy
11:58 PM 54.0 °F - 37.4 °F 54% 29.94 in 10.0 mi ESE 4.6 mph - N/A   Partly Cloudy